Flag for Poland Weather past 2 weeks in Koszalin, Poland

Now
49 °F

Overcast.


Feels Like: 48 °F
Forecast: 42 / 51 °F
Wind: 3 mph from Northeast

Location: Koszalin

Current Time: Oct 23, 2014 at 12:39:29 AM

Latest Report: Oct 23, 2014 at 12:00 AM


Visibility: 7 mi

Pressure: 29.96 "Hg

Humidity: 85%

Dew point: 45 °F

Location of KoszalinLocation

Historic Weather in Koszalin — Graph

°F

Koszalin temperature yesterday

Maximum temperature yesterday: 56 °F (at 3:00 PM)
Minimum temperature yesterday: 50 °F (at 9:00 PM)
Average temperature yesterday: 53 °F

Past Weeks' High & Low Weather Summary

 TemperatureHumidityPressure
High68 °F (Oct 19, 4:00 PM)95% (Oct 16, 8:00 AM)30.27 "Hg (Oct 16, 8:00 AM)
Low47 °F (Oct 17, 9:00 AM)55% (Oct 8, 3:00 PM)29.47 "Hg (Oct 22, 12:00 AM)
Average56 °F85%29.84 "Hg
* Reported Oct 7 10:00 PM — Oct 22 10:00 PM, Koszalin, Weather by CustomWeather, © 2014

Note: Actual official high and low records may vary slightly from our data, if they occured in-between our weather recording intervals... More about our weather records

Advertising

Koszalin weather history for previous 24 hours

 ConditionsComfort  
Time TempWeatherWind HumidityBarometerVisibility
10:00 PM
Oct 22
50 °FFog.3 mph89%29.91 "Hg4 mi
9:00 PM50 °FFog.2 mph90%29.87 "Hg4 mi
8:00 PM51 °FFog.2 mph88%29.84 "Hg4 mi
7:00 PM53 °FFog.2 mph85%29.81 "Hg6 mi
6:00 PM54 °FFog.1 mph85%29.78 "Hg6 mi
5:00 PM54 °FOvercast.1 mph83%29.74 "Hg7 mi
4:00 PM55 °FOvercast.2 mph82%29.70 "Hg6 mi
3:00 PM56 °FOvercast.2 mph80%29.68 "Hg6 mi
2:00 PM55 °FOvercast.2 mph80%29.66 "Hg7 mi
1:00 PM55 °FFog.2 mph84%29.64 "Hg6 mi
12:00 PM53 °FFog.2 mph89%29.63 "Hg4 mi
11:00 AM53 °FFog.2 mph89%29.61 "Hg4 mi
10:00 AM52 °FOvercast.1 mph90%29.59 "Hg5 mi
9:00 AM52 °FLight rain. Overcast.1 mph90%29.56 "Hg4 mi
8:00 AM52 °FOvercast.2 mph90%29.54 "Hg6 mi
7:00 AM52 °FOvercast.2 mph90%29.50 "Hg7 mi
6:00 AM51 °FFog.2 mph91%29.50 "Hg6 mi
5:00 AM52 °FFog.2 mph90%29.50 "Hg6 mi
4:00 AM52 °FFog.3 mph91%29.50 "Hg6 mi
3:00 AM52 °FFog.2 mph92%29.50 "Hg5 mi
2:00 AM52 °FOvercast.3 mph92%29.50 "Hg6 mi
1:00 AM52 °FLight rain. Overcast.2 mph91%29.50 "Hg6 mi
12:00 AM52 °FLight rain. Overcast.2 mph91%29.47 "Hg7 mi
Weather by CustomWeather, © 2014

See weather overviewHow to use our weather pages